Location: Unspecified
(0.0000°N, 0.0000°E)
Time: 03:02:48
(UTC+00:00)

Envisat - Pass Details

Date: 05 August 2021
Orbit: 764 x 766 km, 98.2° (Epoch: 24 September)

Event Time Altitude Azimuth Distance (km) Brightness Sun altitude
Rises 04:07:36 0° 35° (NE) 3,215 7.0 -28.2°
Reaches altitude 10° 04:10:17 10° 48° (NE) 2,292 6.3 -27.6°
Maximum altitude 04:14:20 25° 102° (ESE) 1,518 5.1 -26.6°
Drops below altitude 10° 04:18:24 10° 156° (SSE) 2,299 5.5 -25.7°
Sets 04:21:05 0° 169° (S) 3,227 6.2 -25.0°
